This demonstration page uses our WeatherBlox Daily Observations layout. Learn more.

40.92945, -100.16068

Hourly Observations for June 28, 2018

Temp ( °F °C ) Dew Point ( °F °C ) Humidity (%) Winds ( mph kmh ) Pressure ( in mb ) Visibility ( mi km ) Precip ( " mm )
12:15 am 00:15 Partly Cloudy with Mist and Fog 77 25.2 75 24 93 93 E 8 13 29.77 1008 5 8.0467 0 0
12:35 am 00:35 Mostly Cloudy with Mist and Fog 77 25 75 23.8 93 93 ESE 9 15 29.77 1008 5 8.0467 0 0
12:55 am 00:55 Partly Cloudy with Mist and Fog 77 25 75 23.7 93 93 ESE 8 13 29.77 1008 5 8.0467 0 0
1:15 am 01:15 Clear 76 24.6 74 23.5 94 94 E 9 15 29.77 1008 7 11.26538 0 0
1:35 am 01:35 Clear 76 24.3 74 23.1 93 93 E 8 13 29.74 1007 7 11.26538 0 0
1:55 am 01:55 Clear 76 24.2 73 22.9 92 92 E 9 15 29.74 1007 7 11.26538 0 0
2:15 am 02:15 Clear 75 24 73 22.6 92 92 ESE 7 11 29.74 1007 7 11.26538 0 0
2:35 am 02:35 Clear 75 23.7 73 22.5 93 93 ESE 6 9 29.74 1007 7 11.26538 0 0
2:55 am 02:55 Mostly Cloudy 74 23.5 73 22.5 94 94 ESE 5 7 29.74 1007 7 11.26538 0 0
3:15 am 03:15 Cloudy with Mist and Fog 74 23.6 73 22.5 94 94 E 5 7 29.74 1007 5 8.0467 0 0
3:35 am 03:35 Cloudy with Mist and Fog 74 23.6 73 22.6 94 94 E 6 9 29.74 1007 5 8.0467 0 0
3:55 am 03:55 Cloudy with Mist and Fog 75 23.7 73 22.6 94 94 ESE 9 15 29.71 1006 4 6.43736 0 0
4:15 am 04:15 Cloudy with Mist and Fog 75 23.7 73 22.7 94 94 ESE 10 17 29.71 1006 3 4.82802 0 0
4:35 am 04:35 Cloudy with Nearby Thunderstorms 74 23.5 73 22.6 95 95 ESE 10 17 29.71 1006 1.25 2.011675 0 0
4:55 am 04:55 Cloudy with Nearby Thunderstorms 74 23.5 73 22.7 95 95 SE 9 15 29.68 1005 1 1.60934 0 0
5:15 am 05:15 Cloudy with Mist and Fog 74 23.5 73 22.7 95 95 ESE 9 15 29.68 1005 1 1.60934 0 0
5:35 am 05:35 Cloudy with Mist and Fog 74 23.5 73 22.7 95 95 ESE 7 11 29.71 1006 1.5 2.41401 0 0
5:55 am 05:55 Cloudy with Mist and Fog 74 23.5 73 22.7 95 95 E 3 6 29.71 1006 1.75 2.816345 0 0
6:15 am 06:15 Cloudy with Mist and Fog 74 23.5 73 22.7 95 95 ESE 3 6 29.71 1006 2 3.21868 0 0
6:35 am 06:35 Cloudy with Mist and Fog 74 23.5 73 22.6 95 95 E 7 11 29.68 1005 1.75 2.816345 0 0
6:55 am 06:55 Cloudy with Mist and Fog 74 23.5 73 22.6 95 95 E 12 19 29.68 1005 1.75 2.816345 0 0
7:15 am 07:15 Cloudy with Mist and Fog 74 23.3 73 22.5 95 95 ESE 13 20 29.65 1004 1.5 2.41401 0 0
7:35 am 07:35 Cloudy with Mist and Fog 74 23.2 73 22.5 96 96 E 6 9 29.65 1004 2 3.21868 0 0
7:55 am 07:55 Cloudy with Mist and Fog 74 23.5 73 22.5 94 94 ENE 10 17 29.68 1005 2.5 4.02335 0 0
8:15 am 08:15 Cloudy with Mist and Fog 75 23.8 73 22.6 93 93 E 10 17 29.68 1005 4 6.43736 0 0
8:35 am 08:35 Cloudy with Mist and Fog 75 24.1 73 22.5 91 91 E 10 17 29.68 1005 4 6.43736 0 0
8:55 am 08:55 Partly Cloudy 77 25 72 22.3 85 85 ESE 14 22 29.65 1004 7 11.26538 0 0
9:15 am 09:15 Sunny 78 25.5 72 22.3 83 83 E 9 15 29.68 1005 10 16.0934 0 0
9:35 am 09:35 Partly Cloudy 78 25.7 72 22.3 82 82 E 6 9 29.68 1005 10 16.0934 0 0
9:55 am 09:55 Partly Cloudy 80 26.5 72 22.3 78 78 ENE 8 13 29.68 1005 10 16.0934 0 0
10:15 am 10:15 Partly Cloudy 80 26.7 73 22.6 78 78 ENE 10 17 29.68 1005 10 16.0934 0 0
10:35 am 10:35 Partly Cloudy 81 27 73 22.6 77 77 ENE 10 17 29.68 1005 10 16.0934 0 0
10:55 am 10:55 Partly Cloudy 81 27.2 73 22.5 76 76 E 13 20 29.65 1004 10 16.0934 0 0
11:15 am 11:15 Sunny 82 28 73 22.9 74 74 ESE 13 20 29.65 1004 10 16.0934 0 0
11:35 am 11:35 Sunny 83 28.2 73 22.8 73 73 ESE 15 24 29.65 1004 10 16.0934 0 0
11:55 am 11:55 Sunny 82 27.6 73 22.6 74 74 E 17 28 29.65 1004 10 16.0934 0 0
12:15 pm 12:15 Sunny 82 28 73 22.7 73 73 ESE 18 30 29.65 1004 10 16.0934 0 0
12:35 pm 12:35 Sunny 84 28.7 74 23.2 72 72 ESE 18 30 29.62 1003 10 16.0934 0 0
12:55 pm 12:55 Sunny 85 29.5 74 23.3 69 69 ESE 21 33 29.62 1003 10 16.0934 0 0
1:15 pm 13:15 Sunny 86 29.8 74 23.6 69 69 ESE 17 28 29.59 1002 10 16.0934 0 0
1:35 pm 13:35 Sunny 86 30 74 23.6 69 69 ESE 20 31 29.59 1002 10 16.0934 0 0
1:55 pm 13:55 Sunny 88 31.1 76 24.2 67 67 ESE 20 31 29.59 1002 10 16.0934 0 0
2:15 pm 14:15 Sunny 88 31 76 24.5 68 68 ESE 20 31 29.59 1002 10 16.0934 0 0
2:35 pm 14:35 Sunny 90 32.3 73 22.9 58 58 SE 22 35 29.53 1000 10 16.0934 0 0
2:55 pm 14:55 Sunny 92 33.2 69 20.7 48 48 SE 18 30 29.53 1000 10 16.0934 0 0
3:15 pm 15:15 Sunny 93 33.9 70 20.9 47 47 SE 17 28 29.53 1000 10 16.0934 0 0
3:35 pm 15:35 Sunny 93 34 70 21.3 47 47 SE 21 33 29.5 999 10 16.0934 0 0
3:55 pm 15:55 Sunny 94 34.3 72 22.4 50 50 SE 20 31 29.5 999 10 16.0934 0 0
4:15 pm 16:15 Sunny 95 34.8 73 22.5 49 49 SE 17 28 29.5 999 10 16.0934 0 0
4:35 pm 16:35 Sunny 98 36.5 68 20 38 38 SSE 17 28 29.47 998 10 16.0934 0 0
4:55 pm 16:55 Sunny 98 36.5 67 19.3 36 36 SSE 15 24 29.47 998 10 16.0934 0 0
5:15 pm 17:15 Sunny 98 36.6 64 17.6 32 32 S 16 26 29.47 998 10 16.0934 0 0
5:35 pm 17:35 Sunny 98 36.5 62 16.9 31 31 S 18 30 29.47 998 10 16.0934 0 0
5:55 pm 17:55 Sunny 97 36.1 62 16.5 31 31 S 18 30 29.47 998 10 16.0934 0 0
6:15 pm 18:15 Sunny 96 35.8 61 15.9 30 30 S 15 24 29.47 998 10 16.0934 0 0
6:35 pm 18:35 Sunny 96 35.4 62 16.9 33 33 S 17 28 29.47 998 10 16.0934 0 0
6:55 pm 18:55 Sunny 94 34.7 60 15.8 32 32 S 15 24 29.5 999 10 16.0934 0 0
7:15 pm 19:15 Sunny 93 33.9 62 16.4 35 35 S 14 22 29.5 999 10 16.0934 0 0
7:35 pm 19:35 Partly Cloudy 91 32.5 62 16.5 38 38 S 13 20 29.5 999 10 16.0934 0 0
7:55 pm 19:55 Sunny 89 31.5 62 16.8 41 41 S 13 20 29.5 999 10 16.0934 0 0
8:15 pm 20:15 Sunny 88 31.3 61 16.2 40 40 S 15 24 29.5 999 10 16.0934 0 0
8:35 pm 20:35 Sunny 87 30.4 61 16.1 42 42 SSE 12 19 29.53 1000 10 16.0934 0 0
8:55 pm 20:55 Sunny 86 30 62 16.5 44 44 SSE 12 19 29.53 1000 10 16.0934 0 0
9:15 pm 21:15 Clear 85 29.7 61 16.2 44 44 SSE 10 17 29.53 1000 10 16.0934 0 0
9:35 pm 21:35 Clear 85 29.7 61 16.1 44 44 SSE 13 20 29.53 1000 10 16.0934 0 0
9:55 pm 21:55 Clear 85 29.7 61 15.9 43 43 SSE 12 19 29.53 1000 10 16.0934 0 0
10:15 pm 22:15 Clear 85 29.5 60 15.6 43 43 SSE 13 20 29.53 1000 10 16.0934 0 0
10:35 pm 22:35 Clear 86 30.1 59 15.2 40 40 S 18 30 29.53 1000 10 16.0934 0 0
10:55 pm 22:55 Clear 86 29.9 59 15 40 40 S 17 28 29.53 1000 10 16.0934 0 0
11:15 pm 23:15 Clear 86 29.8 59 14.9 40 40 S 15 24 29.53 1000 10 16.0934 0 0
11:35 pm 23:35 Clear 84 28.9 60 15.3 44 44 S 17 28 29.53 1000 10 16.0934 0 0
11:55 pm 23:55 Clear 84 28.8 60 15.5 44 44 S 21 33 29.53 1000 10 16.0934 0 0

Powered by AerisWeather